Weather History for Anoka County, MN

Change the Weather History Date:

Wednesday, September 26, 2012

  Actual Average Record
Temperature  
Mean Temperature 50 °F -  
Max Temperature 62 °F 63 °F 84 °F (2008)
Min Temperature 37 °F 43 °F 35 °F (2010)
Degree Days  
Heating Degree Days 16    
Moisture  
Dew Point 36 °F    
Average Humidity 75    
Maximum Humidity 93    
Minimum Humidity 32    
Precipitation  
Precipitation 0.00 in - - ()
Sea Level Pressure  
Sea Level Pressure 30.09 in    
Wind  
Wind Speed 2 mph (NNE)    
Max Wind Speed 9 mph    
Max Gust Speed -    
Visibility 10 miles    
Events      
Averages and records for this station are not official NWS values.
T = Trace of Precipitation, MM = Missing Value Source: NWS Daily Summary

Daily Weather History Graph

Daily Weather History Graph

Search for Another Location

Airport:

Trip Planner

Search our weather history database for the weather conditions in past years. The results will help you decide how hot, cold, wet, or windy it might be!

Date:

Astronomy

Sep. 26, 2012 Rise Set
Actual Time 7:05 AM CDT 7:01 PM CDT
Civil Twilight 6:36 AM CDT 7:31 PM CDT
Nautical Twilight 6:01 AM CDT 8:05 PM CDT
Astronomical Twilight 5:26 AM CDT 8:40 PM CDT
Moon 5:07 PM CDT (9/26) 3:23 AM CDT (9/26)
Length of Visible Light 12h 54m
Length of Day
11h 56m
Waxing Gibbous, 88% of the Moon is Illuminated
Sep 26
Waxing Gibbous
Sep 29
Full
Oct 8
Last Quarter
Oct 15
New
Oct 21
First Quarter

Hourly Weather History & Observations

Time (CDT) Temp. Windchill Dew Point Humidity Pressure Visibility Wind Dir Wind Speed Gust Speed Precip Events Conditions
12:14 AM 41.0 °F 39.0 °F 37.4 °F 87% 29.96 in 10.0 mi North 3.5 mph - N/A   Clear
12:34 AM 42.8 °F - 37.4 °F 81% 29.96 in 10.0 mi Calm Calm - N/A   Clear
12:54 AM 42.8 °F 41.1 °F 39.2 °F 87% 29.96 in 10.0 mi North 3.5 mph - N/A   Clear
1:14 AM 39.2 °F 37.0 °F 37.4 °F 93% 29.96 in 10.0 mi NNW 3.5 mph - N/A   Clear
1:34 AM 42.8 °F 41.1 °F 37.4 °F 81% 29.97 in 10.0 mi North 3.5 mph - N/A   Clear
1:54 AM 42.8 °F - 37.4 °F 81% 29.97 in 10.0 mi Calm Calm - N/A   Clear
2:14 AM 41.0 °F - 37.4 °F 87% 29.99 in 10.0 mi Calm Calm - N/A   Clear
2:34 AM 39.2 °F 37.0 °F 37.4 °F 93% 30.00 in 10.0 mi ENE 3.5 mph - N/A   Clear
2:54 AM 39.2 °F 37.0 °F 35.6 °F 87% 30.01 in 10.0 mi ENE 3.5 mph - N/A   Clear
3:14 AM 39.2 °F 37.0 °F 37.4 °F 93% 30.01 in 10.0 mi NE 3.5 mph - N/A   Clear
3:34 AM 39.2 °F 37.0 °F 35.6 °F 87% 30.01 in 10.0 mi NE 3.5 mph - N/A   Clear
3:54 AM 37.4 °F - 35.6 °F 93% 30.02 in 10.0 mi Calm Calm - N/A   Clear
4:14 AM 37.4 °F - 35.6 °F 93% 30.03 in 10.0 mi Calm Calm - N/A   Clear
4:34 AM 39.2 °F 37.0 °F 35.6 °F 87% 30.03 in 10.0 mi NE 3.5 mph - N/A   Clear
4:54 AM 37.4 °F - 35.6 °F 93% 30.04 in 10.0 mi Calm Calm - N/A   Clear
5:14 AM 37.4 °F - 35.6 °F 93% 30.05 in 4.0 mi Calm Calm - N/A   Clear
5:34 AM 37.4 °F - 35.6 °F 93% 30.04 in 10.0 mi Calm Calm - N/A   Clear
5:54 AM 39.2 °F - 37.4 °F 93% 30.05 in 10.0 mi Calm Calm - N/A   Clear
6:14 AM 37.4 °F - 35.6 °F 93% 30.05 in 10.0 mi Calm Calm - N/A   Clear
6:34 AM 37.4 °F 34.9 °F 33.8 °F 87% 30.06 in 10.0 mi North 3.5 mph - N/A   Clear
6:54 AM 39.2 °F - 35.6 °F 87% 30.06 in 10.0 mi Calm Calm - N/A   Clear
7:45 AM 37.4 °F - 35.6 °F 93% 30.08 in 12.0 mi Calm Calm - N/A   Clear
8:45 AM 46.4 °F 43.5 °F 37.4 °F 71% 30.10 in 12.0 mi NNE 5.8 mph - N/A   Clear
9:50 AM 51.8 °F - 37.4 °F 58% 30.12 in 12.0 mi NNE 5.8 mph - N/A   Clear
10:45 AM 57.2 °F - 37.4 °F 48% 30.14 in 12.0 mi NNE 9.2 mph - N/A   Clear
11:45 AM 59.0 °F - 37.4 °F 45% 30.14 in 12.0 mi North 6.9 mph - N/A   Clear
12:45 PM 60.8 °F - 37.4 °F 42% 30.14 in 12.0 mi NNW 6.9 mph - N/A   Clear
1:45 PM 60.8 °F - 35.6 °F 39% 30.13 in 12.0 mi NNE 5.8 mph - N/A   Clear
2:45 PM 62.6 °F - 33.8 °F 34% 30.12 in 10.0 mi North 5.8 mph - N/A   Clear
4:45 PM 62.6 °F - 32.0 °F 32% 30.13 in 10.0 mi NNE 8.1 mph - N/A   Clear
5:45 PM 62.6 °F - 33.8 °F 34% 30.15 in 10.0 mi NE 5.8 mph - N/A   Clear
6:45 PM 59.0 °F - 32.0 °F 36% 30.16 in 10.0 mi NNE 3.5 mph - N/A   Clear
7:45 PM 53.6 °F - 35.6 °F 51% 30.18 in 10.0 mi Calm Calm - N/A   Clear
8:45 PM 46.4 °F - 35.6 °F 66% 30.19 in 10.0 mi Calm Calm - N/A   Clear
9:14 PM 46.4 °F - 37.4 °F 71% 30.19 in 10.0 mi Calm Calm - N/A   Clear
9:34 PM 46.4 °F - 37.4 °F 71% 30.20 in 10.0 mi Calm Calm - N/A   Clear
9:45 PM 44.6 °F - 37.4 °F 76% 30.20 in 10.0 mi Calm Calm - N/A   Clear
9:54 PM 44.6 °F - 37.4 °F 76% 30.20 in 10.0 mi Calm Calm - N/A   Clear
10:14 PM 44.6 °F - 37.4 °F 76% 30.20 in 10.0 mi Calm Calm - N/A   Clear
10:35 PM 42.8 °F - 37.4 °F 81% 30.21 in 10.0 mi Calm Calm - N/A   Clear
11:14 PM 42.8 °F - 37.4 °F 81% 30.21 in 10.0 mi Calm Calm - N/A   Clear
11:34 PM 41.0 °F - 35.6 °F 81% 30.22 in 10.0 mi Calm Calm - N/A   Clear
11:54 PM 42.8 °F - 37.4 °F 81% 30.22 in 10.0 mi Calm Calm - N/A   Clear